sat.trackr.live / text

‹ back to catalog

STARLINK-35828

NORAD 66351 · 2025-254D

PAYLOAD ACTIVE UNKNOWN

§ Identity

Operator
Country
US
Launch date
2025-11-06
Launch site
AFWTR
Launch vehicle
Mass (kg)
RCS (m²)

Purposes: comms

External: N2YO · Heavens-Above · Gunter

§ Orbital elements

Epoch: 2026-09-20T02:23:05.632800Z

Period
94.01 min
Inclination
53.1572°
Eccentricity
0.0000839
Mean motion
15.31711156 rev/d
Perigee alt
470.1 km
Apogee alt
471.3 km
Semi-major
6,848.8 km
B*
4.8986e-4
RAAN
47.8116°
Arg perigee
89.0825°
Mean anomaly
271.0273°
Rev number
4,876

§ Raw data

STARLINK-358281 66351U 25254D   26263.09937075  .00014872  00000+0  48986-3 0  99972 66351  53.1572  47.8116 0000839  89.0825 271.0273 15.31711156 48763

JSON: /api/v1/satellites/66351 · /tle

For live sub-satellite position, see the globe view (requires WebGL).

§ Visibility from observer

Set your observer location to see the next 7 days of passes ≥ 10°. The values pass through the URL so the page stays shareable.

No JS? Fill the form by hand. The geolocation button needs JavaScript.